Weather History for Chievres, Belgium

Change the Weather History Date:

Saturday, October 26, 2013

  Actual Average Record
Temperature  
Mean Temperature 63 °F -  
Max Temperature 68 °F 47 °F 71 °F (2006)
Min Temperature 58 °F 41 °F 30 °F (2010)
Degree Days  
Heating Degree Days 2    
Growing Degree Days 13 (Base 50)    
Moisture  
Dew Point 58 °F    
Average Humidity 88    
Maximum Humidity 100    
Minimum Humidity 66    
Precipitation  
Precipitation 0.00 in - - ()
Sea Level Pressure  
Sea Level Pressure 29.85 in    
Wind  
Wind Speed 10 mph ()    
Max Wind Speed 17 mph    
Max Gust Speed -    
Visibility 7.1 miles    
Events      
Averages and records for this station are not official NWS values.
T = Trace of Precipitation, MM = Missing Value Source: Averaged Metar Reports

Daily Weather History Graph

Daily Weather History Graph

Search for Another Location

Airport:

Trip Planner

Search our weather history database for the weather conditions in past years. The results will help you decide how hot, cold, wet, or windy it might be!

Date:

Astronomy

Oct. 26, 2013 Rise Set
Actual Time 8:25 AM CEST 6:30 PM CEST
Civil Twilight 7:51 AM CEST 7:04 PM CEST
Nautical Twilight 7:13 AM CEST 7:42 PM CEST
Astronomical Twilight 6:35 AM CEST 8:20 PM CEST
Moon No Moon Rise 2:39 PM CEST (10/26)
Length of Visible Light 11h 12m
Length of Day
10h 05m
Waning Gibbous, 55% of the Moon is Illuminated
Oct 26
Waning Gibbous
Oct 27
Last Quarter
Nov 3
New
Nov 10
First Quarter
Nov 17
Full

Hourly Weather History & Observations

Time (CEST) Temp. Dew Point Humidity Pressure Visibility Wind Dir Wind Speed Gust Speed Precip Events Conditions
12:04 AM 59.0 °F 57.2 °F 94% 29.86 in 4.3 mi South 6.9 mph - N/A   Mostly Cloudy
12:25 AM 59.0 °F 57.2 °F 94% 29.86 in 4.3 mi South 6.9 mph - N/A   Mostly Cloudy
1:14 AM 59.0 °F 59.0 °F 100% 29.86 in 5.0 mi South 10.4 mph - N/A   Mostly Cloudy
1:17 AM 59.0 °F 59.0 °F 100% 29.86 in 4.3 mi South 9.2 mph - N/A   Overcast
1:25 AM 59.0 °F 59.0 °F 100% 29.86 in 4.3 mi South 9.2 mph - N/A   Mostly Cloudy
1:45 AM 59.0 °F 59.0 °F 100% 29.86 in 5.0 mi South 10.4 mph - N/A   Mostly Cloudy
2:00 AM 59 °F 58 °F 96% 29.87 in 6 mi SSW 8.9 mph - -   Clear
2:25 AM 59.0 °F 59.0 °F 100% 29.86 in 6.2 mi SSW 10.4 mph - N/A   Mostly Cloudy
2:46 AM 59.0 °F 59.0 °F 100% 29.86 in 6.2 mi SSW 11.5 mph - N/A   Mostly Cloudy
3:22 AM 59.0 °F 59.0 °F 100% 29.86 in 6.2 mi SSW 8.1 mph - N/A   Mostly Cloudy
3:25 AM 59.0 °F 59.0 °F 100% 29.86 in 6.2 mi South 6.9 mph - N/A   Mostly Cloudy
4:25 AM 60.8 °F 59.0 °F 94% 29.83 in 6.2 mi South 10.4 mph - N/A   Mostly Cloudy
5:00 AM 60 °F 58 °F 93% 29.86 in 8 mi South 11.2 mph - -   Scattered Clouds
5:04 AM 60.8 °F 59.0 °F 94% 29.86 in 6.2 mi South 12.7 mph - N/A   Mostly Cloudy
5:25 AM 60.8 °F 59.0 °F 94% 29.86 in 6.2 mi SSW 11.5 mph - N/A   Mostly Cloudy
5:36 AM 60.8 °F 57.2 °F 88% 29.86 in 6.2 mi South 12.7 mph - N/A   Mostly Cloudy
6:25 AM 60.8 °F 59.0 °F 94% 29.83 in 6.2 mi SSW 12.7 mph - N/A   Mostly Cloudy
6:52 AM 60.8 °F 59.0 °F 94% 29.86 in 6.2 mi SSW 10.4 mph - N/A   Mostly Cloudy
7:25 AM 60.8 °F 57.2 °F 88% 29.86 in 6.2 mi SSW 12.7 mph - N/A   Overcast
8:00 AM 60 °F 58 °F 91% 29.86 in 7 mi SSW 11.2 mph - -   Scattered Clouds
8:25 AM 59.0 °F 57.2 °F 94% 29.86 in 5.6 mi SSW 11.5 mph - N/A   Partly Cloudy
9:06 AM 59.0 °F 57.2 °F 94% 29.86 in 6.2 mi SSW 11.5 mph - N/A   Scattered Clouds
9:25 AM 59.0 °F 57.2 °F 94% 29.86 in 6.2 mi SSW 12.7 mph - N/A   Mostly Cloudy
10:25 AM 60.8 °F 57.2 °F 88% 29.89 in 6.2 mi SSW 13.8 mph - N/A   Scattered Clouds
10:44 AM 62.6 °F 57.2 °F 82% 29.89 in 6.2 mi SW 16.1 mph - N/A   Partly Cloudy
11:00 AM 63 °F 58 °F 78% 29.89 in 19 mi SSW 13.4 mph - -   Scattered Clouds
11:25 AM 64.4 °F 57.2 °F 77% 29.89 in 6.2 mi SSW 16.1 mph - N/A   Mostly Cloudy
12:25 PM 66.2 °F 57.2 °F 73% 29.89 in 6.2 mi SSW 13.8 mph - N/A   Scattered Clouds
1:25 PM 66.2 °F 57.2 °F 73% 29.86 in 6.2 mi SSW 16.1 mph - N/A   Scattered Clouds
2:00 PM 66 °F 58 °F 67% 29.86 in 28 mi SSW 15.7 mph - -   Mostly Cloudy
2:25 PM 66.2 °F 59.0 °F 78% 29.83 in 6.2 mi SSW 15.0 mph - N/A   Mostly Cloudy
3:25 PM 66.2 °F 57.2 °F 73% 29.83 in 6.2 mi SSW 17.3 mph - N/A   Mostly Cloudy
4:25 PM 66.2 °F 59.0 °F 78% 29.83 in 6.2 mi SSW 13.8 mph - N/A   Mostly Cloudy
5:00 PM 66 °F 57 °F 66% 29.83 in 19 mi SSW 13.4 mph - -   Scattered Clouds
5:25 PM 66.2 °F 57.2 °F 73% 29.83 in 6.2 mi SSW 11.5 mph - N/A   Unknown
6:25 PM 62.6 °F 57.2 °F 82% 29.83 in 6.2 mi SSW 10.4 mph - N/A   Scattered Clouds
7:25 PM 60.8 °F 57.2 °F 88% 29.83 in 6.2 mi SSW 10.4 mph - N/A   Unknown
8:00 PM 60 °F 57 °F 87% 29.83 in 13 mi South 8.9 mph - -  
8:25 PM 60.8 °F 57.2 °F 88% 29.80 in 6.2 mi South 11.5 mph - N/A   Unknown
9:25 PM 60.8 °F 55.4 °F 82% 29.80 in 6.2 mi South 13.8 mph - N/A   Unknown
10:25 PM 60.8 °F 55.4 °F 82% 29.77 in 6.2 mi SSW 16.1 mph - N/A   Unknown
11:00 PM 60 °F 56 °F 81% 29.78 in 19 mi SSW 15.7 mph - -  
11:25 PM 60.8 °F 55.4 °F 82% 29.77 in 6.2 mi SSW 16.1 mph - N/A   Unknown